Miscellaneous Local Product
Issued by NWS North Platte, NE

Home | Current Version | Previous Version | Graphics & Text | Print | Product List | Glossary On
Versions: 1 2 3 4 5 6 7 8 9 10 11 12 13 14 15 16 17 18 19 20 21 22 23 24 25 26 27 28 29 30 31 32 33 34 35 36 37 38 39 40 41 42 43 44 45 46 47 48 49 50
000
AXUS43 KLBF 261810
MISLBF


WESTERN AND NORTH CENTRAL NEBRASKA HOURLY WEATHER ROUNDUP
NATIONAL WEATHER SERVICE NORTH PLATTE NE
100 PM CDT FRI MAY 26 2017

NOTE: "FAIR" INDICATES FEW OR NO CLOUDS BELOW 12,000 FEET WITH NO
SIGNIFICANT WEATHER AND/OR OBSTRUCTIONS TO VISIBILITY.

NOTE: STATIONS NOT REPORTING VARIABLES SUCH AS SKY/WEATHER OR
PRESSURE ARE PROVIDED BY RAWS AND APRS NETWORKS AND ARE NOT UNDER
NATIONAL WEATHER SERVICE QUALITY CONTROL.

...OBSERVATIONS IN AND NEAR THE EASTERN PANHANDLE OF NEBRASKA...

CITY           SKY/WX    TMP DP  RH WIND       PRES   REMARKS
PINE RIDGE     SUNNY     66  38  35 N3        29.93S
GORDON         FAIR      63  34  34 S3        29.94S
CHADRON        SUNNY     61  36  39 SW3       29.93S
ALLIANCE       SUNNY     61  41  47 E8        29.93F
SIDNEY         SUNNY     61  42  49 SE9       29.95F
CRESCENT LAKE    N/A     64  39  40 E5          N/A
$$

...OBSERVATIONS IN NORTHERN NEBRASKA AND FAR SOUTHERN SOUTH DAKOTA...

CITY           SKY/WX    TMP DP  RH WIND       PRES   REMARKS
WINNER         FAIR      68  42  38 NW14G21   29.89S
VALENTINE      SUNNY     68  37  32 NW9       29.92R
THEDFORD       SUNNY     66  42  40 N7        29.93F
AINSWORTH      SUNNY     64  42  43 NW9G20    29.91S
O`NEILL        SUNNY     67  41  37 NW13G20   29.90R
ORD            MOSUNNY   69  45  41 N13G21    29.89S
BROKEN BOW     SUNNY     70  44  39 N10       29.92R
VALENTINE NWR    N/A     64  38  38 N9G20       N/A
HALSEY           N/A     67  40  36 NW7G16      N/A
BUTTE            N/A     65  41  41 NW13G21     N/A
CHAMBERS         N/A     69  45  41 N3          N/A
EWING            N/A     69  47  46 N8G16       N/A
$$

...OBSERVATIONS IN SOUTHWEST NEBRASKA AND FAR NORTHEAST COLORADO...

CITY           SKY/WX    TMP DP  RH WIND       PRES   REMARKS
WRAY           FAIR      64  43  45 E5        29.95F
IMPERIAL       SUNNY     66  45  46 VRB5      29.94F
OGALLALA       SUNNY     66  41  39 N3        29.94F
NORTH PLATTE   SUNNY     69  44  40 N7        29.93S
MCCOOK         SUNNY     71  46  40 NE9       29.92S
LEXINGTON      MOSUNNY   69  48  48 N7        29.92S
STAPLETON        N/A     66  42  42 N3          N/A
GOTHENBURG       N/A     68  38  33 N5          N/A
CALLAWAY         N/A     65  44  47 N12         N/A
$$

...OBSERVATIONS IN CENTRAL LINCOLN COUNTY AREA...

CITY           SKY/WX    TMP DP  RH WIND       PRES   REMARKS
N.P. AIRPORT   SUNNY     69  44  40 N7        29.93S
N.P. DOWNTOWN    N/A     66  43  43 E3G12       N/A
N.P. SOUTHEAST   N/A     68  43  39 N3          N/A
N.P. HILLCREST   N/A     66  42  42 NE3G13      N/A
$$

...SOME OBSERVATIONS FROM AROUND THE REGION...

CITY           SKY/WX    TMP DP  RH WIND       PRES   REMARKS
DENVER         PTSUNNY   62  48  60 E10G21    29.93F
LIMON          SUNNY     64  48  56 S9G20     29.96F
ASPEN          CLOUDY    62  26  25 VRB7G16   29.99F
LARAMIE        CLOUDY    56  39  53 SE21      29.91S
CASPER         CLOUDY    50  38  63 SE10      29.91F
CHEYENNE       CLOUDY    56  41  57 S14G23    29.95F
SCOTTSBLUFF    SUNNY     62  38  40 VRB5      29.94F
GRAND ISLAND   SUNNY     72  48  42 N12       29.88S
OMAHA          MOSUNNY   76  57  51 NW12      29.79R
SIOUX FALLS    MOSUNNY   71  51  49 NW14G21   29.81R
PIERRE         SUNNY     67  38  34 NW25G31   29.84S
RAPID CITY     SUNNY     66  35  31 VRB6G17   29.90S
BISMARCK       PTSUNNY   64  41  42 NW16G22   29.78S
KANSAS CITY    PTSUNNY   78  65  63 NW6       29.75R
HILL CITY      SUNNY     73  51  46 NE14      29.90S
WICHITA        SUNNY     82  62  50 NE13G21   29.77R
DODGE CITY     SUNNY     77  57  50 NE13G23   29.88R
OKLAHOMA CITY  MOSUNNY   85  64  49 N16       29.75S
DALLAS         MOSUNNY   94  73  50 S21G26    29.76S HX 103
AMARILLO       SUNNY     79  51  37 VRB3      29.95R
$$




USA.gov is the U.S. government's official web portal to all federal, state and local government web resources and services.